Preview of NWS' New Version of Forecast
This preview is not operational and should not be used for support decisions.

Regional Weather Roundup (RWR)

Issued by National Weather Service (NWS)

                            
000
ASUS42 KTBW 202118
RWRFL 
FLORIDA REGIONAL WEATHER ROUNDUP
NATIONAL WEATHER SERVICE TAMPA BAY RUSKIN FL
500 PM EDT SAT JUL 20 2019

NOTE: "FAIR" INDICATES FEW OR NO CLOUDS BELOW 12,000 FEET WITH NO
SIGNIFICANT WEATHER AND/OR OBSTRUCTIONS TO VISIBILITY.

FLZ001>010-012>015-112-114-115-202200-
PANHANDLE FLORIDA
  
CITY           SKY/WX    TMP DP  RH WIND       PRES   REMARKS
PENSACOLA      FAIR      85  75  72 S6        30.03F                  
PENSACOLA NAS  PTSUNNY   84  75  74 S7        30.03F                  
MILTON NAS     PTSUNNY   85  72  65 SE7       30.02F                  
CRESTVIEW      FAIR      85  69  58 S6        30.05F                  
DUKE FIELD     FAIR      84  69  59 S8        30.03F                  
VALPARAISO     PTSUNNY   82  73  74 S5        30.03F                  
MARY ESTHER    PTSUNNY   83  73  71 CALM      30.02F                  
TRI COUNTY     FAIR      86  75  69 VRB5      30.04F HX  95           
PANAMA CITY    FAIR      84  70  62 SE3       30.04S                  
TYNDALL AFB    FAIR      84  74  70 SE5       30.03F                  
APALACHICOLA   FAIR      86  72  62 W8        30.04F                  

STATION/POSITION SKY/WX   TEMP    WIND        PRES    WAVE   SWELL
                          AIR SEA DIR/SP/G            HT/PER HT/PER
                          (F)     (DEG/KT/KT) (MB)    (FT/S) (FT/S)
30.1N   87.6W              81 86  200/  4/  4 1017.2F   2/ 4   2/ 4
29.2N   88.2W              81     150/ 10/ 12 1017.6
28.8N   86.0W                 86  290/  6/  8 1017.3F   2/ 3   2/ 6
PANAMA CITY BEAC           81 87  200/  5/  9 1017.7
TOWER C                    80     260/  7/  8 1017.2F
28.5N   84.5W              80     330/ 12/ 16 1017.6F   3/ 4

$$
FLZ011-016>038-118-127-128-134-139-239-202200-
NORTH FLORIDA
  
CITY           SKY/WX    TMP DP  RH WIND       PRES   REMARKS
MARIANNA       FAIR      83  75  77 SW6       30.04F                  
TALLAHASSEE    PTSUNNY   82  74  76 W14G25    30.05F                  
PERRY          FAIR      86  79  79 W10       30.04F HX  99           
LIVE OAK       SUNNY     86  73  66 W6        30.02F                  
CROSS CITY     FAIR      88  76  69 W10G17    30.03S HX  98           
LAKE CITY      FAIR      91  70  49 W6        30.02F HX  97           
GAINESVILLE    FAIR      91  72  53 CALM      30.03F HX  98           
WILLISTON      TSTM      81  75  81 S5        30.05R VSB 1            
PALATKA        FAIR      86  75  70 W9        30.03S HX  95           
MAYPORT NAS    FAIR      89  75  63 SE17      30.02F HX  99           
JACKSONVILLE   PTSUNNY   92  73  53 CALM      30.00F HX 100           
JAX NAS        FAIR      95  65  37 S5        30.01  HX  97           
JAX CECIL      PTSUNNY   79  72  78 VRB3      30.01F                  
FERNANDINA BEA FAIR      88  76  67 SE12      30.02F HX  98           
ST AUGUSTINE   FAIR      89  76  65 SE16      30.03F HX 100           
PALM COAST     MOSUNNY   81  75  83 CALM      30.04F                  

STATION/POSITION SKY/WX   TEMP    WIND        PRES    WAVE   SWELL
                          AIR SEA DIR/SP/G            HT/PER HT/PER
                          (F)     (DEG/KT/KT) (MB)    (FT/S) (FT/S)
SHELL POINT      NOT AVBL
KEATON BEACH               85     270/ 12/ 14 1017.0F
CEDAR KEY                  86     260/  7/ 10 1017.1F
FERNANDINA                 92 86  100/  5/ 11 1017.6
30.7N   81.3W                 85                N/A     1/ 9
MAYPORT                    87 83  140/ 10/ 12 1017.3
31.4N   80.9W              83 85  180/ 10/ 12 1016.6F   2/ 9   2/ 9
ST AUGUSTINE               82 82  150/ 11/ 12 1017.0F

$$
FLZ040-043>046-052-053-057-058-063-144-202200-
INTERIOR CENTRAL FLORIDA
  
CITY           SKY/WX    TMP DP  RH WIND       PRES   REMARKS
OCALA          PTSUNNY   90  73  57 W3        30.02F HX  98           
LEESBURG       FAIR      87  71  58 NE15G26   30.03F                  
SANFORD        FAIR      90  72  55 SE8       30.03F HX  97           
ORLANDO EXEC   FAIR      84  71  65 S9        30.04S                  
ORLANDO INTL   PTSUNNY   81  72  74 SE5       30.04F                  
KISSIMMEE      LGT RAIN  78  74  87 SE6       30.05S                  
WINTER HAVEN   FAIR      78  72  81 CALM      30.04F                  
LAKELAND       PTSUNNY   86  70  58 SE12      30.03F                  
SEBRING        MOCLDY    81  75  80 S12       30.04S                  
OKEECHOBEE     FAIR      86  75  70 CALM      30.03F HX  95           

$$
FLZ041-047-054-059-064-141-147-202200-
EAST CENTRAL FLORIDA
  
CITY           SKY/WX    TMP DP  RH WIND       PRES   REMARKS
ORMOND BEACH   MOSUNNY   90  73  58 E9        30.04F HX  98           
DAYTONA BEACH  FAIR      89  78  70 E12       30.04F HX 103           
DELAND         FAIR      91  66  43 SE5       30.03F                  
NEW SMYRNA BEA MOSUNNY   90  73  58 SE12      30.06F HX  98           
JFK SPACE CTR  SUNNY     87  66  49 SE7       30.04F                  
TITUSVILLE     MOSUNNY   90  73  58 SE9       30.06F HX  98           
CAPE CANAVERAL SUNNY     85  57  37 E8        30.04F                  
PATRICK AFB    FAIR      85  78  78 SE7       30.04F HX  96           
MELBOURNE      FAIR      86  74  67 E6        30.04F                  
VERO BEACH     FAIR      86  74  67 E9        30.05F                  
FT PIERCE      FAIR      86  74  67 E9        30.05S                  
STUART         MOSUNNY   86  75  70 SE12G17   30.06F HX  95           

STATION/POSITION SKY/WX   TEMP    WIND        PRES    WAVE   SWELL
                          AIR SEA DIR/SP/G            HT/PER HT/PER
                          (F)     (DEG/KT/KT) (MB)    (FT/S) (FT/S)
28.5N   80.2W              84 84  120/  4/  6 1017.6F   2/ 9   2/ 9
28.9N   78.5W              85 87  180/  6/  8   N/A     3/ 8   2/ 8
TRIDENT PIER               85 83   90/  8/ 10 1019.3
28.4N   80.5W                 83                N/A     1/ 9
27.5N   80.2W                 83                N/A     2/ 8

$$
FLZ050-056-061-142-242-148-248-149-249-151-251-155-255-
160-260-202200-
WEST CENTRAL FLORIDA
  
CITY           SKY/WX    TMP DP  RH WIND       PRES   REMARKS
CRYSTAL RIVER  TSTM      73  70  88 SW3       30.04S                  
INVERNESS      TSTM      82  81  94 CALM      30.04R HX  95           
BROOKSVILLE    PTSUNNY   88  76  67 W10       30.02F THUNDER HX  99   
CLEARWATER AIR FAIR      88  72  58 W5        30.02S                  
ST PETE CLEARW FAIR      90  73  57 NW8       30.01F THUNDER HX  98   
TAMPA INTL     TSTM      88  71  57 N10G20    30.01F                  
TAMPA EXEC     PTSUNNY   84  72  65 E8        30.03S                  
PLANT CITY     FAIR     N/A N/A N/A MISG      30.04F                  
MACDILL AFB    FAIR      92  73  52 NW10G17   30.00F HX 100           
PETER O KNIGHT CLOUDY    90  73  58 NW7       30.01F HX  98           
ST PETERSBURG  FAIR      92  72  51 SE3       29.99F HX  99           
SARASOTA       FAIR      88  74  63 W7        30.03R THUNDER HX  96   
VENICE         TSTM      72  68  88 CALM      30.07R                  

STATION/POSITION SKY/WX   TEMP    WIND        PRES    WAVE   SWELL
                          AIR SEA DIR/SP/G            HT/PER HT/PER
                          (F)     (DEG/KT/KT) (MB)    (FT/S) (FT/S)
27.3N   84.2W                 90                N/A     2/ 4
CLEARWATER BEACH           86 88  230/  7/  8 1017.2
MIDDLE TAMPA BAY           86     280/  8/  9 1017.0
VENICE                        86   40/  5/  6 1017.5R

$$
FLZ066-069-070-075>078-162-262-165-265-202200-
SOUTHWEST FLORIDA AND KEYS
  
CITY           SKY/WX    TMP DP  RH WIND       PRES   REMARKS
PUNTA GORDA    LGT RAIN  74  73  97 E3        30.04F                  
FT MYERS       LGT RAIN  75  72  90 CALM      30.02F                  
SOUTHWEST INTL LGT RAIN  75  73  93 SW3       30.02F                  
MARCO ISLAND   FAIR      78  75  90 MISG      30.04S                  
IMMOKALEE      FAIR      79  75  89 CALM      30.01F                  
MARATHON       FAIR      90  76  63 SE9       30.00F HX 101           
KEY WEST NAS   PTSUNNY   92  75  57 SE8       30.00F HX 103           
KEY WEST INTL  FAIR      88  75  65 E7        30.00F HX  97           

STATION/POSITION SKY/WX   TEMP    WIND        PRES    WAVE   SWELL
                          AIR SEA DIR/SP/G            HT/PER HT/PER
                          (F)     (DEG/KT/KT) (MB)    (FT/S) (FT/S)
NAPLES                     77 87              1017.0
26.0N   85.6W              85 87  110/  4/  6 1016.5
DRY TORTUGAS               83      50/  6/ 11 1016.5F
SAND KEY                   86      90/  5/  6 1014.9
SOMBRERO KEY               85     100/  9/ 11 1016.0
LONG KEY                   86                 1015.1

$$
FLZ067-068-071>074-168-172>174-202200-
SOUTHEAST FLORIDA 
  
CITY           SKY/WX    TMP DP  RH WIND       PRES   REMARKS
W PALM BEACH   FAIR      89  74  60 E16       30.05S HX  98           
BOCA RATON     TSTM      77  73  88 E14G21    30.05S                  
FT LAUDER-EXEC FAIR      85  75  72 SE10      30.04S THUNDER          
FT LAUDERDALE  PTSUNNY   85  73  67 SE9       30.03S                  
POMPANO BEACH  PTSUNNY   85  74  69 E13       30.03S                  
PEMBROKE PINES FAIR      85  75  72 E6        30.05R                  
OPA LOCKA      FAIR      87  75  67 E9        30.03S HX  96           
MIAMI          PTSUNNY   87  73  62 E10       30.03S                  
WEST KENDALL   FAIR      87  76  69 SE9       30.01F HX  97           
HOMESTEAD      PTSUNNY   88  79  74 E9        30.00F HX 102           

STATION/POSITION SKY/WX   TEMP    WIND        PRES    WAVE   SWELL
                          AIR SEA DIR/SP/G            HT/PER HT/PER
                          (F)     (DEG/KT/KT) (MB)    (FT/S) (FT/S)
PORT EVERGLADES            85     120/  4/  8 1017.3
VIRGINIA KEY               83 89   80/  9/ 11 1016.7
LAKE WORTH                 83 86  120/  8/ 10 1018.6
FOWEY ROCKS                83 85  110/  7/  8 1016.9F
SETTLEMENT POINT           84     160/  6/ 10 1017.5F

$$